STARLINK-3800, 52379

Orbit data source: Space-Track

STARLINK-3800, 52379 is a payload satellite owned by SpaceX/Seattle (US) in LEO that was launched on Fri, 29 Apr 2022 UTC via an FALCON 9 launch vehicle from the Air Force Eastern Test Range (AFETR). Payload-class satellites include a variety of spacecraft equipped with specific instruments for various scientific and technological missions. These include communications satellites like Starlink; space stations such as the ISS; scientific satellites like the Hubble; Earth observation satellites from companies like Planet Labs, Umbra, and HawkEye 360; GPS; miniature CubeSats for education and research; and military/defense satellites.

Loading next visibility...
Identifier
52379, 2022-045BA
Orbit
LEO
Country
Flag of USUS
Related business
Manufacturer
SpaceX/Seattle
Mission
Operational Commercial Communications
Bus & Motor
STARLINK, Unknown motor
Mass
297 kg wet, ~275 kg dry
Launch date (UTC)
2022-04-29 (4 years ago)
Launch vehicle
FALCON 9
Launch site
Air Force Eastern Test Range (AFETR)
Object type
Payload
Rocket body
Debris
Shape & HBR
Box + 1 Pan, 10.1 m
Radar Cross Section
11.087 m², Large (>1 m²)

Expand to show TLE details & history
Last TLE update: 2 days ago

TLE from 2 days ago
0 STARLINK-3800
1 52379U 22045BA  26171.14851784  .00000240  00000-0  33161-4 0  9998
2 52379  53.1605  89.0523 0001173  87.2982 272.8143 15.08830196231399
Epoch: 2026-06-20T03:33Z
TLE epoch observation values (Epoch: 2026-06-20T03:33:51.941Z)
Latitude
-0.00007°
Longitude
127.21853°
Altitude
540.625 km
Speed
7.593 km/s
True Right ascension
05h 56m 12s
True Declination
0° 00' 00"
Sunlit
Object was in daylight at epoch
Visualization orbit readout
Latitude
Unknown
Longitude
Unknown
Altitude
Unknown
Speed
Unknown
Apparent Right ascension
Unknown
Apparent Declination
Unknown
Sunlit
N/A
Visualization observer readout
Local Sidereal Time
21:40:28
Azimuth
Unknown
Elevation
Unknown
Doppler factor
Unknown
Orbital elements
Apogee altitude
540.839 km
Perigee altitude
539.216 km
Semi-major axis
6,918.164 km
Eccentricity
0.00012
Inclination
53.1605°
RAAN
89.0523°
Arg. of periapsis
87.2982°
True anomaly
272.80087°
Mean anomaly
272.8143°
Eccentric anomaly
272.80759°
Mean motion
3.77187 °/min
Orbital period
95.44 mins
BSTAR
0.000033161
Loading maneuver chart data...
Computing Atmospheric mass density...
Loading historical data...
Loading historical data...
Loading historical data...
Loading historical data...
Loading historical data...
Loading historical data...
Loading historical data...

Documentation

Showing up to 5 results
|